Location: Wanzleben
(52.0609°N, 11.4408°E)
Time: 11:39:11
(UTC+00:00)

Terra - Pass Details

Date: 18 September 2020
Orbit: 701 x 703 km, 98.2° (Epoch: 31 October)

Event Time Altitude Azimuth Distance (km) Brightness Sun altitude
Exits shadow 21:57:46 24° 305° (NW) 1,431 3.8 -34.5°
Drops below altitude 10° 22:00:13 10° 329° (NNW) 2,184 5.1 -34.6°
Sets 22:02:42 0° 339° (NNW) 3,107 6.2 -34.8°
